[[{"header":{"parameterUnit":"m.s-1","parameterCategory":1,"la1":30.2991,"la2":30.254,"lo1":-89.0895,"lo2":-89.0444,"dy":0.0017,"dx":0.0017,"nx":28,"ny":28,"refTime":"2025-05-25T03:00:00:Z","depth":0,"parameterNumber":2,"parameterNumberName":"U-component_of_WINDS"},"data":[0,0,0,0,0,0,0,0,0,0,0,0,0,0,0,0,0,0,0,0,0,0,0,0,0,0,0,0,0,0,0,0,0,0,0,0,0,0,0,0,0,0,0,0,0,0,0,0,0,0,0,0,0,0,0,0,0,0,1.0515,1.0515,0,1.0564,1.0564,1.0565,1.0543,1.0542,1.0541,1.0539,1.0592,1.0594,1.0597,0,0,0,0,0,0,0,0,0,0,0,0,0,1.0402,1.0404,1.0515,1.0515,1.0516,1.0564,1.0564,1.0565,1.0543,1.0542,1.054,1.0539,1.0591,1.0594,1.0597,0,0,0,0,0,0,0,0,0,0,0,0,0,1.0451,1.0405,1.0515,1.0511,1.0511,1.0564,1.0564,1.0565,1.0543,1.0542,1.054,1.0538,1.059,1.0593,1.0597,1.0657,0,0,1.0609,1.061,0,0,0,0,0,0,0,0,1.0449,1.0455,1.0511,1.0511,1.0511,1.0545,1.0544,1.0596,1.0544,1.0531,1.0539,1.0537,1.0578,1.0582,1.0596,1.0659,1.0662,1.0609,1.0611,1.0613,1.0614,0,0,0,0,0,0,0,1.0445,1.0453,1.0534,1.0512,1.0512,1.0507,1.0511,1.0554,1.0564,1.0532,1.0531,1.0537,1.0578,1.0592,1.0597,1.0662,1.0609,1.0612,1.0615,1.0616,1.0775,1.0777,0,0,0,0,0,0,1.0442,1.0451,1.0533,1.0536,1.0475,1.051,1.0516,1.0536,1.0564,1.0566,1.0538,1.0535,1.0587,1.0592,1.0599,1.0668,1.0613,1.0616,1.0619,1.0773,1.0775,1.0777,0,0,0,0,0,0,1.0439,1.0449,1.0531,1.0493,1.0503,1.0514,1.0537,1.0538,1.0553,1.0568,1.057,1.0551,1.0585,1.0593,1.0642,1.067,1.0618,1.0622,1.0771,1.0774,1.0776,1.081,0,0,0,0,0,0,1.0436,1.0449,1.0472,1.0493,1.0505,1.0573,1.0539,1.0541,1.0559,1.0556,1.0581,1.0583,1.0584,1.0636,1.0646,1.0674,1.0625,1.0768,1.0772,1.0775,1.0806,1.0814,1.082,0,0,0,0,0,1.0432,1.048,1.0473,1.0483,1.0534,1.0575,1.0582,1.0582,1.0561,1.0584,1.0594,1.0582,1.0665,1.0641,1.0652,1.0682,1.0766,1.0771,1.0775,1.0803,1.0812,1.082,0,0,0,0,0,0,1.0463,1.0483,1.0475,1.0532,1.0552,1.0571,1.06,1.0591,1.0618,1.0614,1.0614,1.062,1.0669,1.0681,1.0654,1.074,1.0713,1.0719,1.0731,1.0739,1.0746,1.0742,1.0628,0,0,0,0,0,1.0476,1.0508,1.0524,1.0572,1.0582,1.0589,1.0608,1.0605,1.0627,1.0635,1.0648,1.067,1.07,1.072,1.075,1.0808,1.0812,1.0833,1.084,1.0846,1.0851,1.0881,1.089,1.0792,1.0792,1.0792,0,0,1.0504,1.0519,1.0539,1.0578,1.0594,1.0626,1.0597,1.0633,1.0657,1.0641,1.0687,1.0697,1.0721,1.0773,1.0798,1.0784,1.0879,1.0851,1.0855,1.0858,1.0886,1.0895,1.0903,1.0795,1.0794,1.0794,0,0,1.0571,1.0586,1.0626,1.0641,1.0664,1.0668,1.0678,1.0699,1.0704,1.075,1.0738,1.0766,1.082,1.0836,1.0852,1.0922,1.0911,1.0931,1.0966,1.0995,1.1003,1.1009,1.1033,1.1041,1.0937,1.0937,1.0937,0,1.0603,1.0651,1.0649,1.0685,1.0701,1.0687,1.0727,1.0743,1.0774,1.0786,1.0771,1.0835,1.085,1.0906,1.0922,1.0936,1.0946,1.0928,1.1002,1.1008,1.1015,1.1037,1.1046,1.0939,1.0939,1.0939,1.0938,0,1.0688,1.0721,1.0751,1.078,1.08,1.0839,1.0842,1.0862,1.0858,1.0864,1.0909,1.0926,1.0957,1.0971,1.0968,1.1025,1.1016,1.1001,1.0974,1.1026,1.1047,1.1056,1.0942,1.0941,1.0941,1.094,0,0,1.0776,1.0802,1.0813,1.0825,1.0848,1.0873,1.091,1.0939,1.0956,1.0978,1.1008,1.1052,1.1038,1.1055,1.1054,1.1079,1.113,1.1061,1.1061,1.1072,1.1193,1.1203,1.1213,1.1124,1.1125,1.1127,1.119,0,1.0844,1.0907,1.0905,1.0965,1.0994,1.098,1.1012,1.1029,1.1034,1.106,1.1067,1.1097,1.1077,1.1087,1.1111,1.1119,1.1155,1.1115,1.1151,1.1152,1.1145,1.1224,1.1235,1.1294,1.1198,1.12,1.1201,0,1.0931,1.0954,1.1015,1.1031,1.1044,1.1072,1.1098,1.1123,1.1141,1.1144,1.1162,1.1155,1.1192,1.1163,1.1213,1.1185,1.12,1.1206,1.1208,1.1211,1.1179,1.1228,1.1313,1.1322,1.1214,1.1213,1.1212,0,1.0987,1.1034,1.1076,1.1087,1.1107,1.1127,1.1136,1.1153,1.117,1.1192,1.1203,1.123,1.1244,1.1265,1.1265,1.1245,1.1315,1.1287,1.1317,1.1317,1.1332,1.1331,1.142,1.1343,1.1343,1.1343,1.1343,0,1.1062,1.11,1.1101,1.1127,1.1168,1.1165,1.1207,1.1214,1.1229,1.1255,1.1245,1.127,1.127,1.1295,1.1296,1.1336,1.1343,1.1345,1.1345,1.1346,1.1345,1.1355,1.135,1.1345,1.1345,1.1344,1.1344,0,1.1132,1.1134,1.1179,1.1194,1.1198,1.1228,1.124,1.1265,1.1269,1.1302,1.131,1.1316,1.1345,1.1348,1.1383,1.1383,1.1431,1.1426,1.1424,1.1423,1.1452,1.1449,1.155,1.1562,1.1478,1.1479,1.148,0,1.1179,1.1208,1.1225,1.1241,1.1251,1.1279,1.1295,1.1293,1.131,1.1332,1.1353,1.1381,1.1403,1.145,1.1458,1.1484,1.1479,1.1513,1.1483,1.1482,1.1478,1.1476,1.1478,1.1519,1.152,1.152,1.1521,0,1.1262,1.1261,1.1285,1.1308,1.1328,1.1347,1.1365,1.1379,1.1378,1.1398,1.1427,1.1444,1.1478,1.1505,1.153,1.154,1.153,1.153,1.1538,1.1539,1.1535,1.1536,1.1438,1.1528,1.1527,1.1527,1.1526,1.1526,1.1321,1.1345,1.1359,1.1386,1.1398,1.1414,1.1437,1.1443,1.1466,1.1493,1.149,1.1522,1.1538,1.1569,1.1581,1.1605,1.1594,1.1606,1.1609,1.1612,1.1614,1.1532,1.161,1.161,1.161,1.1609,1.1609,0,1.1401,1.141,1.1434,1.1458,1.1478,1.1466,1.1484,1.1502,1.153,1.1545,1.1566,1.1598,1.1624,1.1633,1.1658,1.1675,1.1671,1.1682,1.168,1.1682,1.1623,1.1613,1.1685,1.1685,1.1684,1.1684,1.1684,1.1684,1.1446,1.1484,1.1485,1.1529,1.1537,1.1567,1.1578,1.1592,1.1604,1.164,1.1661,1.1666,1.1678,1.1704,1.1726,1.1728,1.1737,1.1749,1.1749,1.1694,1.1687,1.1679,1.167,1.1752,1.1752,1.1806,1.1806,1.1807]},{"header":{"parameterUnit":"m.s-1","parameterCategory":1,"la1":30.2991,"la2":30.254,"lo1":-89.0895,"lo2":-89.0444,"dy":0.0017,"dx":0.0017,"nx":28,"ny":28,"refTime":"2025-05-25T03:00:00:Z","depth":0,"parameterNumber":3,"parameterNumberName":"V-component_of_WINDS"},"data":[0,0,0,0,0,0,0,0,0,0,0,0,0,0,0,0,0,0,0,0,0,0,0,0,0,0,0,0,0,0,0,0,0,0,0,0,0,0,0,0,0,0,0,0,0,0,0,0,0,0,0,0,0,0,0,0,0,0,5.3469,5.3471,0,5.3608,5.3609,5.3611,5.3579,5.3576,5.3574,5.3571,5.3705,5.3711,5.3717,0,0,0,0,0,0,0,0,0,0,0,0,0,5.317,5.3175,5.3469,5.3471,5.3473,5.3608,5.3609,5.3611,5.3579,5.3576,5.3573,5.357,5.3703,5.371,5.3718,0,0,0,0,0,0,0,0,0,0,0,0,0,5.3303,5.3177,5.3469,5.3473,5.3475,5.3607,5.3609,5.3612,5.358,5.3576,5.3572,5.3568,5.3701,5.371,5.3719,5.3853,0,0,5.3746,5.375,0,0,0,0,0,0,0,0,5.3295,5.3314,5.3471,5.3473,5.3475,5.3572,5.3553,5.3692,5.3581,5.354,5.3571,5.3566,5.3664,5.3676,5.371,5.3859,5.3865,5.3747,5.3753,5.3756,5.3759,0,0,0,0,0,0,0,5.3286,5.3308,5.3524,5.3473,5.3476,5.3466,5.348,5.3579,5.3622,5.3543,5.3541,5.3558,5.3664,5.3701,5.3713,5.3867,5.3747,5.3755,5.376,5.3764,5.4133,5.4137,0,0,0,0,0,0,5.3276,5.33,5.3519,5.3528,5.3374,5.3474,5.3491,5.3545,5.3621,5.3629,5.3562,5.3556,5.3688,5.3702,5.3717,5.388,5.3756,5.3765,5.377,5.4129,5.4134,5.4139,0,0,0,0,0,0,5.327,5.3296,5.3514,5.3414,5.3441,5.3484,5.3545,5.355,5.3587,5.3635,5.3641,5.3592,5.3685,5.3705,5.382,5.3884,5.3769,5.3777,5.4123,5.413,5.4136,5.4206,0,0,0,0,0,0,5.3261,5.3294,5.3347,5.3415,5.3446,5.3617,5.3549,5.3555,5.3604,5.3598,5.3665,5.3673,5.3684,5.3807,5.3829,5.3894,5.3784,5.4118,5.4127,5.4134,5.4198,5.4214,5.4227,0,0,0,0,0,5.3251,5.3359,5.335,5.3377,5.3514,5.362,5.3638,5.365,5.3609,5.3662,5.3692,5.367,5.3874,5.3819,5.3844,5.3913,5.4114,5.4124,5.4134,5.4191,5.4211,5.4227,0,0,0,0,0,0,5.3295,5.3368,5.3359,5.3493,5.3551,5.3615,5.3682,5.3671,5.3739,5.3731,5.3741,5.3757,5.3875,5.3905,5.3843,5.4046,5.3987,5.4003,5.4023,5.4041,5.4056,5.4046,5.3792,0,0,0,0,0,5.3321,5.3403,5.3462,5.3575,5.3605,5.3638,5.3685,5.369,5.3749,5.3773,5.3812,5.3868,5.3945,5.3995,5.4067,5.4202,5.4215,5.4261,5.4276,5.4288,5.4301,5.4374,5.4395,5.4171,5.4171,5.4171,0,0,5.3374,5.3424,5.3475,5.3585,5.363,5.3714,5.3659,5.3749,5.381,5.3786,5.3898,5.3928,5.3992,5.4117,5.4175,5.4146,5.4366,5.4301,5.431,5.4317,5.4386,5.4408,5.4426,5.4178,5.4177,5.4176,0,0,5.3514,5.3561,5.366,5.3707,5.3778,5.38,5.3823,5.3889,5.391,5.4023,5.4006,5.4078,5.4209,5.4255,5.4296,5.4454,5.4436,5.4477,5.4554,5.4625,5.4643,5.4658,5.4715,5.4735,5.449,5.449,5.449,0,5.357,5.3698,5.3711,5.3804,5.3852,5.3837,5.3936,5.398,5.407,5.4103,5.407,5.4236,5.4277,5.4413,5.4452,5.4485,5.4512,5.4469,5.464,5.4655,5.467,5.4724,5.4745,5.4494,5.4494,5.4493,5.4493,0,5.3763,5.3852,5.3923,5.4013,5.4069,5.4165,5.4191,5.4246,5.4246,5.4271,5.4385,5.4435,5.4518,5.455,5.455,5.4687,5.4667,5.4637,5.4578,5.4696,5.4746,5.4767,5.4501,5.4499,5.4498,5.4497,0,0,5.3934,5.4032,5.4058,5.4099,5.4176,5.4243,5.4337,5.4421,5.4467,5.4529,5.4608,5.472,5.4693,5.4739,5.4744,5.4806,5.4928,5.4769,5.477,5.4797,5.5081,5.5103,5.5127,5.4917,5.4921,5.4924,5.5076,0,5.4081,5.425,5.4266,5.4416,5.4498,5.4484,5.4565,5.462,5.4646,5.4716,5.4743,5.4823,5.4781,5.4809,5.487,5.49,5.4985,5.489,5.4988,5.4991,5.4973,5.5153,5.5177,5.5317,5.5095,5.5099,5.5101,0,5.4275,5.4346,5.4506,5.4572,5.4606,5.468,5.4758,5.4827,5.4887,5.4901,5.4954,5.495,5.5045,5.4983,5.5112,5.5047,5.5088,5.5108,5.5114,5.5124,5.5053,5.5167,5.5363,5.5384,5.5132,5.513,5.5128,0,5.4384,5.4519,5.4632,5.4667,5.4747,5.4799,5.4834,5.4892,5.4941,5.5009,5.504,5.5117,5.5158,5.5217,5.5233,5.5186,5.5362,5.5301,5.5375,5.5375,5.5412,5.541,5.5617,5.5439,5.5439,5.5438,5.5438,0,5.4546,5.4644,5.4683,5.4752,5.4861,5.4877,5.4983,5.5015,5.5067,5.514,5.5132,5.5201,5.5218,5.529,5.5303,5.5408,5.5427,5.5439,5.5442,5.5441,5.5439,5.5467,5.5458,5.5444,5.5443,5.5441,5.5441,0,5.4686,5.4716,5.4838,5.4905,5.4924,5.5001,5.5056,5.5122,5.5147,5.524,5.5263,5.53,5.5384,5.5407,5.5506,5.5515,5.5639,5.5632,5.5619,5.5619,5.5692,5.5684,5.5924,5.5956,5.5757,5.5759,5.5761,0,5.4788,5.4864,5.4939,5.4989,5.5028,5.5108,5.5159,5.5177,5.523,5.5306,5.5362,5.5446,5.5514,5.5648,5.5682,5.5758,5.5753,5.5832,5.5764,5.576,5.5754,5.5749,5.5757,5.5844,5.5846,5.5848,5.5849,0,5.4965,5.4977,5.5052,5.5133,5.5195,5.5259,5.532,5.5361,5.5387,5.5447,5.5534,5.5587,5.569,5.5772,5.5849,5.5882,5.587,5.5871,5.5892,5.5891,5.5881,5.5887,5.5654,5.5865,5.5863,5.5862,5.5861,5.5861,5.509,5.5156,5.522,5.5304,5.5353,5.541,5.5476,5.5509,5.5583,5.5671,5.5676,5.577,5.5828,5.5931,5.5969,5.6041,5.6017,5.6048,5.6056,5.6063,5.6069,5.587,5.6055,5.6055,5.6054,5.6054,5.6054,0,5.5267,5.5307,5.5385,5.5472,5.5538,5.5523,5.559,5.5646,5.573,5.5787,5.5854,5.5954,5.6034,5.6075,5.6154,5.6204,5.6201,5.6224,5.6221,5.6229,5.6086,5.606,5.6226,5.6226,5.6226,5.6226,5.6226,5.6226,5.5366,5.5479,5.5498,5.5633,5.5672,5.5767,5.5807,5.5859,5.5904,5.6017,5.6085,5.6112,5.6163,5.6245,5.6317,5.6327,5.6356,5.6383,5.639,5.6256,5.6239,5.6222,5.6197,5.639,5.639,5.6526,5.6528,5.6529]}]]